Weather History for Spokane Felts, WA

Change the Weather History Date:

Sunday, August 25, 2013

  Actual Average Record
Temperature  
Mean Temperature 73 °F 68 °F  
Max Temperature 86 °F 82 °F 95 °F (1996)
Min Temperature 60 °F 53 °F 44 °F (2012)
Degree Days  
Heating Degree Days 0 1  
Month to date heating degree days 5 11  
Since 1 June heating degree days 110 150  
Since 1 July heating degree days 5 32  
Cooling Degree Days 8 4  
Month to date cooling degree days 207 138  
Year to date cooling degree days 572 356  
Since 1 June cooling degree days 546 349  
Growing Degree Days 22 (Base 50)    
Moisture  
Dew Point 53 °F    
Average Humidity 57    
Maximum Humidity 84    
Minimum Humidity 29    
Precipitation  
Precipitation 0.25 in 0.03 in 0.25 in (2013)
Month to date precipitation 1.71 0.53  
Year to date precipitation 9.67 10.57  
Sea Level Pressure  
Sea Level Pressure 29.86 in    
Wind  
Wind Speed 3 mph (North)    
Max Wind Speed 29 mph    
Max Gust Speed 41 mph    
Visibility 9 miles    
Events Rain , Thunderstorm    
T = Trace of Precipitation, MM = Missing Value Source: NWS Daily Summary

Daily Weather History Graph

Daily Weather History Graph

Search for Another Location

Airport:

Trip Planner

Search our weather history database for the weather conditions in past years. The results will help you decide how hot, cold, wet, or windy it might be!

Date:

Astronomy

Aug. 25, 2013 Rise Set
Actual Time 5:58 AM PDT 7:42 PM PDT
Civil Twilight 5:26 AM PDT 8:15 PM PDT
Nautical Twilight 4:46 AM PDT 8:55 PM PDT
Astronomical Twilight 4:02 AM PDT 9:38 PM PDT
Moon 9:49 PM PDT (8/25) 11:31 AM PDT (8/25)
Length of Visible Light 14h 49m
Length of Day
13h 43m
Waning Gibbous, 75% of the Moon is Illuminated
Aug 25
Waning Gibbous
Aug 28
Last Quarter
Sep 5
New
Sep 12
First Quarter
Sep 19
Full

Hourly Weather History & Observations

Time (PDT) Temp. Dew Point Humidity Pressure Visibility Wind Dir Wind Speed Gust Speed Precip Events Conditions
12:53 AM 66.9 °F 46.9 °F 49% 29.81 in 10.0 mi NNE 3.5 mph - N/A   Partly Cloudy
1:53 AM 64.9 °F 50.0 °F 58% 29.83 in 10.0 mi ENE 4.6 mph - N/A   Mostly Cloudy
2:53 AM 64.0 °F 52.0 °F 65% 29.87 in 10.0 mi Calm Calm - N/A   Mostly Cloudy
3:53 AM 62.1 °F 54.0 °F 75% 29.85 in 10.0 mi North 3.5 mph - 0.01 in   Overcast
4:07 AM 62.6 °F 53.6 °F 72% 29.91 in 10.0 mi Calm Calm - N/A Thunderstorm Overcast
4:22 AM 62.6 °F 53.6 °F 72% 29.92 in 10.0 mi NE 3.5 mph - N/A   Overcast
4:53 AM 62.1 °F 54.0 °F 75% 29.87 in 10.0 mi Calm Calm - N/A   Mostly Cloudy
5:53 AM 64.0 °F 51.1 °F 63% 29.89 in 10.0 mi Calm Calm - N/A   Mostly Cloudy
6:53 AM 61.0 °F 54.0 °F 78% 29.89 in 10.0 mi Calm Calm - 0.01 in   Mostly Cloudy
7:53 AM 62.1 °F 55.0 °F 78% 29.91 in 10.0 mi Calm Calm - N/A   Mostly Cloudy
8:53 AM 66.9 °F 53.1 °F 61% 29.91 in 10.0 mi ENE 4.6 mph - N/A   Mostly Cloudy
9:53 AM 71.1 °F 52.0 °F 51% 29.90 in 10.0 mi East 3.5 mph - N/A   Scattered Clouds
10:53 AM 73.9 °F 54.0 °F 50% 29.89 in 10.0 mi Calm Calm - N/A   Scattered Clouds
11:53 AM 73.9 °F 53.1 °F 48% 29.88 in 10.0 mi WNW 6.9 mph - N/A   Clear
12:53 PM 79.0 °F 53.1 °F 40% 29.85 in 10.0 mi Calm Calm - N/A   Clear
1:53 PM 82.0 °F 50.0 °F 33% 29.83 in 10.0 mi Calm Calm - N/A   Clear
2:53 PM 82.0 °F 50.0 °F 33% 29.81 in 10.0 mi NW 3.5 mph - N/A   Partly Cloudy
3:53 PM 84.9 °F 51.1 °F 31% 29.78 in 10.0 mi NNW 3.5 mph - N/A   Clear
4:53 PM 84.9 °F 48.9 °F 29% 29.77 in 10.0 mi Variable 3.5 mph - N/A   Clear
5:53 PM 84.0 °F 50.0 °F 31% 29.76 in 10.0 mi Calm Calm - N/A   Clear
6:53 PM 81.0 °F 50.0 °F 34% 29.76 in 10.0 mi North 4.6 mph - N/A   Clear
7:53 PM 78.1 °F 50.0 °F 37% 29.74 in 10.0 mi NNW 5.8 mph - N/A   Clear
8:43 PM 77.0 °F 50.0 °F 39% 29.85 in 7.0 mi West 20.7 mph 36.8 mph N/A Thunderstorm Scattered Clouds
8:51 PM 66.2 °F 55.4 °F 68% 29.87 in 1.8 mi WSW 16.1 mph 36.8 mph 0.14 in Rain , Thunderstorm Heavy Rain
8:53 PM 66.0 °F 55.9 °F 70% 29.84 in 1.5 mi WSW 25.3 mph 41.4 mph 0.17 in Rain , Thunderstorm Heavy Thunderstorms and Rain
9:03 PM 62.6 °F 55.4 °F 77% 29.90 in 3.0 mi West 12.7 mph 32.2 mph 0.05 in Rain , Thunderstorm Light Thunderstorms and Rain
9:37 PM 62.6 °F 53.6 °F 72% 29.90 in 10.0 mi Variable 4.6 mph - 0.06 in   Clear
9:53 PM 63.0 °F 54.0 °F 72% 29.88 in 10.0 mi Calm Calm - 0.06 in Thunderstorm Clear
10:02 PM 62.6 °F 55.4 °F 77% 29.92 in 10.0 mi ESE 9.2 mph - N/A   Partly Cloudy
10:53 PM 61.0 °F 55.9 °F 83% 29.89 in 10.0 mi Calm Calm - N/A   Overcast
11:53 PM 60.1 °F 55.9 °F 86% 29.88 in 10.0 mi Calm Calm - N/A   Scattered Clouds